Weather History for Poplar Bluff, MO

Change the Weather History Date:

Sunday, May 26, 2013

  Actual Average Record
Temperature  
Mean Temperature 72 °F -  
Max Temperature 84 °F 81 °F 96 °F (2012)
Min Temperature 59 °F 59 °F 38 °F (1925)
Cooling Degree Days 6    
Growing Degree Days 22 (Base 50)    
Moisture  
Dew Point 58 °F    
Average Humidity 63    
Maximum Humidity 87    
Minimum Humidity 44    
Precipitation  
Precipitation 0.00 in - - ()
Sea Level Pressure  
Sea Level Pressure 30.12 in    
Wind  
Wind Speed 3 mph (South)    
Max Wind Speed 10 mph    
Max Gust Speed 18 mph    
Visibility 10 miles    
Events      
Averages and records for this station are not official NWS values.
T = Trace of Precipitation, MM = Missing Value Source: NWS Daily Summary

Daily Weather History Graph

Daily Weather History Graph

Search for Another Location

Airport:

Trip Planner

Search our weather history database for the weather conditions in past years. The results will help you decide how hot, cold, wet, or windy it might be!

Date:

Astronomy

May. 26, 2013 Rise Set
Actual Time 5:46 AM CDT 8:10 PM CDT
Civil Twilight 5:16 AM CDT 8:40 PM CDT
Nautical Twilight 4:39 AM CDT 9:17 PM CDT
Astronomical Twilight 3:59 AM CDT 9:57 PM CDT
Moon 9:59 PM CDT (5/26) 7:15 AM CDT (5/26)
Length of Visible Light 15h 24m
Length of Day
14h 24m
Waning Gibbous, 96% of the Moon is Illuminated
May 26
Waning Gibbous
May 31
Last Quarter
Jun 8
New
Jun 16
First Quarter
Jun 23
Full

Hourly Weather History & Observations

Time (CDT) Temp. Heat Index Dew Point Humidity Pressure Visibility Wind Dir Wind Speed Gust Speed Precip Events Conditions
12:53 AM 61.0 °F - 55.9 °F 83% 30.17 in 10.0 mi Calm Calm - N/A   Clear
1:53 AM 61.0 °F - 57.0 °F 87% 30.15 in 10.0 mi Calm Calm - N/A   Clear
2:53 AM 59.0 °F - 55.0 °F 87% 30.14 in 10.0 mi Calm Calm - N/A   Clear
3:53 AM 59.0 °F - 55.0 °F 87% 30.14 in 10.0 mi Calm Calm - N/A   Clear
4:53 AM 59.0 °F - 54.0 °F 83% 30.15 in 10.0 mi Calm Calm - N/A   Clear
5:53 AM 59.0 °F - 55.0 °F 87% 30.15 in 10.0 mi Calm Calm - N/A   Clear
6:53 AM 61.0 °F - 55.9 °F 83% 30.16 in 10.0 mi NNE 3.5 mph - N/A   Clear
7:53 AM 66.0 °F - 57.0 °F 73% 30.16 in 10.0 mi Calm Calm - N/A   Clear
8:53 AM 71.1 °F - 59.0 °F 66% 30.17 in 10.0 mi South 3.5 mph - N/A   Mostly Cloudy
9:53 AM 75.0 °F - 60.1 °F 60% 30.17 in 10.0 mi SSW 6.9 mph - N/A   Partly Cloudy
10:53 AM 78.1 °F - 61.0 °F 56% 30.17 in 10.0 mi SSW 5.8 mph - N/A   Clear
11:53 AM 80.1 °F 80.9 °F 60.1 °F 50% 30.17 in 10.0 mi SW 8.1 mph - N/A   Clear
12:53 PM 81.0 °F 81.3 °F 59.0 °F 47% 30.15 in 10.0 mi SSW 8.1 mph - N/A   Clear
1:53 PM 82.9 °F 83.7 °F 62.1 °F 49% 30.13 in 10.0 mi SSW 10.4 mph 18.4 mph N/A   Clear
2:53 PM 82.9 °F 83.3 °F 61.0 °F 47% 30.11 in 10.0 mi South 9.2 mph - N/A   Clear
3:53 PM 84.0 °F 84.4 °F 61.0 °F 46% 30.09 in 10.0 mi South 8.1 mph - N/A   Clear
4:53 PM 84.0 °F 84.5 °F 62.1 °F 47% 30.06 in 10.0 mi South 10.4 mph - N/A   Clear
5:53 PM 82.9 °F 82.8 °F 59.0 °F 44% 30.05 in 10.0 mi South 10.4 mph - N/A   Clear
6:53 PM 82.0 °F 82.1 °F 59.0 °F 45% 30.04 in 10.0 mi South 8.1 mph - N/A   Clear
7:53 PM 79.0 °F - 59.0 °F 50% 30.04 in 10.0 mi South 5.8 mph - N/A   Clear
8:53 PM 73.9 °F - 59.0 °F 59% 30.04 in 10.0 mi SSE 4.6 mph - N/A   Clear
9:53 PM 73.0 °F - 57.0 °F 57% 30.06 in 10.0 mi South 4.6 mph - N/A   Clear
10:53 PM 71.1 °F - 55.0 °F 57% 30.05 in 10.0 mi SSE 5.8 mph - N/A   Clear
11:53 PM 72.0 °F - 53.1 °F 51% 30.05 in 10.0 mi South 5.8 mph - N/A   Clear